Location: Cipriano
(19.7500°S, 43.9500°W)
Time: 00:44:02
(UTC+00:00)

Daily predictions for brighter satellites

Satellite Brightness Start Highest point End
(mag) Time Altitude Azimuth Time Altitude Azimuth Time Altitude Azimuth
OBJECT-B 4.3 00:15:56 10° SW 00:16:13 11° SW 00:16:13 11° SW
CZ-2C R/B 4.5 00:33:27 10° SW 00:33:42 11° SSW 00:33:42 11° SSW
H-2A R/B (2) 3.8 00:37:17 10° W 00:43:29 52° SE 01:03:08 10° ESE
ATLAS 2AS CENTAUR R/B 4.4 05:00:40 22° ESE 05:00:40 22° ESE 05:03:17 10° SE
CZ-4C R/B 4.0 05:00:38 42° E 05:00:38 42° E 05:06:32 10° SE
Cosmos 2297 Rocket 4.3 05:09:50 23° SSE 05:09:50 23° SSE 05:11:52 10° SSE
SL-16 R/B 3.6 05:19:13 10° SSE 05:23:00 39° SSE 05:23:00 39° SSE
Milstar 3 Cent rocket 4.1 05:28:12 21° SE 05:28:12 21° SE 05:30:01 10° ESE
CZ-2C R/B 3.6 05:54:13 40° SE 05:54:13 40° SE 05:57:59 10° S
Cosmos 2061 Rocket 4.2 05:48:42 10° S 05:54:11 64° SE 05:54:11 64° SE
Cosmos 1864 Rocket 4.4 06:04:46 10° S 06:10:56 86° S 06:10:56 86° S
SeaSat 1 2.8 06:11:44 10° SSE 06:16:11 63° ESE 06:16:11 63° ESE
Cosmos 2237 Rocket 3.1 06:12:38 10° S 06:18:03 46° ESE 06:23:26 10° NE
Okean 1 Rocket 3.7 06:18:34 10° S 06:22:47 54° ESE 06:22:47 54° ESE
Cosmos 2233 Rocket 4.3 06:17:15 10° S 06:23:36 67° E 06:27:06 28° NNE
Cosmos 921 Rocket 3.8 06:19:20 10° S 06:23:42 51° ESE 06:23:49 50° E
GPS 2-14 Rocket1 4.3 06:27:07 31° E 06:27:07 31° E 06:29:17 10° E
USA 32 4.2 06:21:02 10° S 06:26:17 71° E 06:27:08 59° NE
Cosmos 2227 Rocket 3.8 06:27:57 21° SW 06:27:57 21° SW 06:30:53 10° SSW
RESURS DK-1 3.0 06:30:47 53° ESE 06:30:47 53° ESE 06:34:17 10° SSE
Meteor 1-21 4.0 06:30:59 76° WNW 06:31:16 79° W 06:36:59 10° S
NOSS 0 Rocket 3.8 06:28:06 10° SSW 06:34:21 76° WNW 06:37:01 36° N
Cosmos 540 Rocket 4.4 06:30:01 10° S 06:34:58 47° ESE 06:39:50 10° NNE
Ariane H10+ 4.2 06:33:08 32° NNW 06:36:41 40° NNE 07:00:38 10° E
Lacrosse 4 Rocket 3.1 06:33:04 10° S 06:36:42 31° ESE 06:40:19 10° NE
NOSS 3-2 (A) 3.4 06:32:44 10° SSW 06:38:27 66° ESE 06:43:43 10° NE
GPS 2-12 Rocket1 3.8 06:39:13 43° NE 06:39:13 43° NE 06:43:12 10° E
Cosmos 968 Rocket 3.4 06:43:39 59° NNW 06:44:41 88° WSW 06:50:00 10° SSE
Cosmos 1975 Rocket 2.9 06:46:30 75° WSW 06:46:30 75° WSW 06:50:55 10° S
ALOS 2.3 06:45:18 32° NNE 06:47:30 81° ESE 06:52:12 10° S
CZ-4C R/B 4.0 06:45:51 29° W 06:47:36 31° WSW 06:54:22 10° S
ATLAS 2AS CENTAUR R/B 3.6 06:48:08 26° WSW 06:48:31 26° WSW 06:53:38 10° S
NOSS 3-2 (C) 4.5 06:43:12 10° S 06:48:36 40° ESE 06:53:36 10° NE
SL-08 R/B 3.2 06:45:13 10° SSE 06:50:07 89° WSW 06:51:25 49° NNW
FUSE 4.4 06:48:39 31° WSW 06:51:05 60° S 06:56:24 10° E
Cosmos 1980 3.5 06:45:26 10° SSW 06:51:08 73° WNW 06:56:46 10° N
Cosmos 1674 4.3 06:49:16 18° NE 06:51:24 31° E 06:54:45 10° SSE
Meteor 1-22 Rocket 4.1 06:49:38 10° SSW 06:54:56 60° W 06:56:44 39° NNW
IRAS Rocket 4.2 06:49:40 10° SSE 06:55:18 88° ENE 06:58:19 29° NNW
SWIFT 2.1 06:55:57 74° WNW 06:56:19 86° N 07:00:33 10° E
ATLAS 5 CENTAUR R/B 2.9 06:54:10 38° WNW 06:56:51 57° WSW 07:03:56 10° SSE
SJ-6F 4.3 06:58:12 55° NNW 06:58:57 72° WNW 07:03:05 10° SSW
Meteor 1-31 Rocket 3.9 06:56:43 10° NNE 07:00:28 46° ESE 07:04:17 10° S
Cosmos 1726 3.2 06:57:14 10° S 07:00:48 44° E 07:04:19 10° NNE
BREEZE M DEB (TANK) 3.1 07:01:50 47° N 07:01:50 47° N 07:06:20 10° NNE
Cosmos 1486 Rocket 4.0 07:01:06 42° NW 07:02:40 60° WSW 07:07:56 10° S
Intercosmos 25 3.9 07:02:47 42° WSW 07:02:47 42° WSW 07:07:36 10° S
Cosmos 1707 3.6 07:03:31 34° WSW 07:03:31 34° WSW 07:06:28 10° SSW
Cosmos 1763 Rocket 4.4 07:00:39 10° SW 07:03:54 28° WSW 07:03:54 28° WSW
X-37B 2.5 07:06:24 21° SSW 07:06:24 21° SSW 07:08:44 10° SSE
Cosmos 1626 4.5 07:07:30 10° NE 07:10:28 23° E 07:13:28 10° SE
Cosmos 841 Rocket 3.3 07:07:06 10° SSW 07:12:17 70° WNW 07:17:23 10° N
CENTAUR R/B 2.1 07:08:30 10° SSW 07:13:44 77° ESE 07:18:53 10° NNE
ATLAS CENTAUR R/B 1.6 07:10:34 10° SW 07:14:40 44° WNW 07:17:36 16° N
Hubble Space Telescope 1.5 07:16:29 27° WSW 07:18:17 45° SSW 07:22:17 10° ESE
CZ-3 R/B 4.0 06:35:25 10° WSW 07:18:38 70° S 07:27:53 10° E
Cosmos 1455 Rocket 3.3 07:14:55 10° S 07:19:23 72° E 07:23:46 10° N
Cosmos 2263 Rocket 2.1 07:16:56 23° NNW 07:20:25 69° WSW 07:26:00 10° S
Cosmos 1356 Rocket 3.8 07:16:57 10° SSW 07:20:39 37° W 07:21:29 33° WNW
Geosat FO 4.4 07:17:52 10° SSE 07:21:15 79° WSW 07:22:52 30° NNW
GPS 2-15 Rocket1 4.3 07:22:39 24° NNW 07:23:21 25° NNW 07:27:21 10° NE
Palapa 6 Rocket 3.3 07:23:26 21° W 07:26:38 82° NNW 07:32:24 10° ENE
ADEOS 3.6 07:21:51 10° N 07:26:56 54° WNW 07:32:04 10° SSW
ERBS 2.2 07:26:05 10° SSW 07:29:29 86° SE 07:32:49 10° NNE
USA 238 DEB 3.6 07:23:20 10° SW 07:29:45 54° WNW 07:36:00 10° N
USA 238 3.6 07:23:27 10° SW 07:29:52 55° WNW 07:36:08 10° N
Ariane H10-3 4.0 07:25:31 19° WNW 07:30:17 25° NNW 07:34:17 10° NE
Cosmos 1570 Rocket 4.1 07:25:27 10° SSW 07:30:36 55° WNW 07:35:41 10° N
Cosmos 1503 Rocket 4.0 07:27:20 18° NNW 07:31:09 59° WSW 07:36:16 10° S
ISS -2.2 07:31:55 20° WSW 07:32:57 23° SW 07:35:46 10° S
KORONAS-FOTON 4.1 07:34:04 18° NNW 07:36:37 46° W 07:40:18 10° S
Cosmos 1484 Rocket 4.0 07:38:30 20° WNW 07:39:03 21° W 07:41:58 10° SW
Cosmos 2034 Rocket 4.4 07:33:20 10° S 07:39:39 70° E 07:45:58 10° NNE
Cosmos 1470 3.9 07:37:05 10° SW 07:40:18 24° W 07:42:05 18° NW
Cosmos 1758 3.9 07:38:41 10° SSW 07:42:22 36° W 07:46:02 10° NNW
SL-16 R/B 2.1 07:44:34 10° SSW 07:50:14 73° WNW 07:55:51 10° N
Cosmos 2208 Rocket 4.4 07:46:38 10° SSW 07:51:43 42° W 07:56:48 10° N
Meteosat 1 Rocket2 4.1 07:48:50 10° WSW 07:52:07 30° S 07:55:44 10° SE
SL-14 R/B 3.4 07:51:19 10° N 07:55:21 86° E 07:59:26 10° S
Cosmos 1536 Rocket 4.0 07:51:26 10° NNW 07:55:37 41° W 07:59:50 10° SSW
Meteor 1-24 Rocket 4.4 07:52:23 10° N 07:58:11 65° E 08:04:09 10° SSE
Cosmos 1025 Rocket 4.4 07:56:59 10° NW 08:00:07 20° W 08:03:23 10° SSW
Cosmos 2237 Rocket 3.8 07:58:54 10° WSW 08:01:36 14° W 08:04:19 10° NW
Milstar 3 Cent rocket 3.3 07:59:34 10° WSW 08:04:09 44° SSE 08:10:54 10° E
ADEOS Rocket 4.4 07:59:12 10° SSW 08:05:42 32° WSW 08:12:20 10° NW
GPS 2-14 Rocket1 2.7 08:02:22 10° W 08:06:16 76° S 08:10:06 10° E
Cosmos 1818 3.6 08:02:08 10° NNW 08:07:33 88° ENE 08:12:58 10° SSE
deb Chang Zheng 4 4.3 08:04:15 10° NNW 08:07:59 30° W 08:11:45 10° SW
Tsikada Rocket 4.5 08:07:35 10° NNW 08:13:21 41° W 08:19:15 10° SSW
Cosmos 1844 Rocket 3.4 08:08:41 10° N 08:14:07 59° ENE 08:19:37 10° SSE
